Flag for Uzbekistan Weather past 2 weeks in Samarkand, Uzbekistan

Now
68 °F

Passing clouds.


Feels Like: 68 °F
Forecast: 59 / 85 °F
Wind: 6 mph from Southeast

Location: Samarkand

Current Time: Sep 24, 2014 at 3:36:46 AM

Latest Report: Sep 24, 2014 at 3:00 AM


Visibility: N/A

Pressure: 29.74 "Hg

Humidity: 46%

Dew point: 46 °F

Location of SamarkandLocation

Historic Weather in Samarkand — Graph

°F

Samarkand temperature yesterday

Maximum temperature yesterday: 91 °F (at 2:00 PM)
Minimum temperature yesterday: 59 °F (at 6:30 AM)
Average temperature yesterday: 76 °F

Past Weeks' High & Low Weather Summary

 TemperatureHumidityPressure
High93 °F (Sep 17, 3:30 PM)68% (Sep 18, 3:00 AM)30.24 "Hg (Sep 18, 3:00 AM)
Low50 °F (Sep 20, 5:00 AM)11% (Sep 9, 10:30 AM)29.71 "Hg (Sep 17, 3:00 PM)
Average71 °F28%29.95 "Hg
* Reported Sep 9 2:00 AM — Sep 24 2:00 AM, Samarkand, Weather by CustomWeather, © 2014

Note: Actual official high and low records may vary slightly from our data, if they occured in-between our weather recording intervals... More about our weather records

Advertising

Samarkand weather history for previous 24 hours

 ConditionsComfort  
Time TempWeatherWind HumidityBarometerVisibility
2:00 AM
Sep 24
68 °FPassing clouds.6 mph46%29.74 "HgN/A
1:00 AM72 °FPassing clouds.3 mph41%29.74 "HgN/A
12:00 AM72 °FPassing clouds.3 mph41%29.77 "HgN/A
11:30 PM
Sep 23
70 °FPassing clouds.3 mph43%29.80 "HgN/A
11:00 PM66 °FPassing clouds.1 mph49%29.80 "HgN/A
10:30 PM72 °FPassing clouds.6 mph38%29.77 "HgN/A
10:00 PM72 °FPassing clouds.3 mph38%29.77 "HgN/A
9:30 PM73 °FPassing clouds.8 mph36%29.77 "HgN/A
9:00 PM75 °FPassing clouds.6 mph31%29.80 "HgN/A
8:30 PM75 °FPassing clouds.8 mph31%29.80 "HgN/A
8:00 PM77 °FPassing clouds.8 mph32%29.80 "HgN/A
7:30 PM77 °FPassing clouds.6 mph30%29.80 "HgN/A
7:00 PM79 °FPassing clouds.6 mph30%29.80 "HgN/A
6:30 PM81 °FPassing clouds.3 mph28%29.80 "HgN/A
6:00 PM82 °FPartly sunny.6 mph26%29.80 "HgN/A
5:30 PM84 °FPartly sunny.No wind25%29.80 "HgN/A
5:00 PM88 °FPartly sunny.No wind22%29.77 "HgN/A
4:30 PM88 °FPartly sunny.6 mph19%29.77 "HgN/A
4:00 PM90 °FScattered clouds.6 mph18%29.77 "HgN/A
3:00 PM90 °FScattered clouds.8 mph17%29.80 "HgN/A
2:30 PM91 °FClear.8 mph15%29.80 "HgN/A
2:00 PM91 °FClear.6 mph16%29.80 "HgN/A
1:30 PM90 °FClear.3 mph21%29.80 "HgN/A
1:00 PM90 °FClear.3 mph21%29.80 "HgN/A
12:30 PM90 °FClear.1 mph18%29.83 "HgN/A
12:00 PM90 °FClear.1 mph17%29.83 "HgN/A
11:30 AM86 °FClear.3 mph20%29.83 "HgN/A
11:00 AM86 °FClear.10 mph20%29.83 "HgN/A
10:30 AM84 °FClear.8 mph22%29.86 "HgN/A
10:00 AM81 °FClear.8 mph24%29.86 "HgN/A
9:30 AM77 °FClear.8 mph28%29.86 "HgN/A
9:00 AM75 °FClear.8 mph27%29.86 "HgN/A
8:30 AM73 °FClear.6 mph31%29.86 "HgN/A
8:00 AM70 °FClear.3 mph35%29.86 "HgN/A
7:30 AM68 °FClear.3 mph38%29.86 "HgN/A
7:00 AM64 °FClear.6 mph43%29.86 "HgN/A
6:30 AM59 °FClear.3 mph55%29.89 "HgN/A
6:00 AM64 °FClear.6 mph40%29.86 "HgN/A
5:30 AM64 °FClear.6 mph40%29.86 "HgN/A
5:00 AM70 °FClear.10 mph31%29.86 "HgN/A
4:30 AM70 °FClear.10 mph31%29.86 "HgN/A
3:30 AM68 °FClear.3 mph33%29.86 "HgN/A
3:00 AM64 °FClear.3 mph40%29.89 "HgN/A
Weather by CustomWeather, © 2014

See weather overviewHow to use our weather pages